Вернуться в каталог

COSMOS 1285 DEB

LostHEO
NORAD 33528·DEBRIS·🇷🇺 Russia

Запущен Aug 4, 1981 с Plesetsk Cosmodrome

Loading…

Ближайшие Пролёты (ближайшие 24 часа)

TLE

УстаревшееSource: Space-Track

Эпоха: Jan 15, 2012, 14:39 UTC

1 33528U 81071AD  12015.61100863 -.00000655  00000-0  00000+0 0  9998
2 33528  66.8118 104.3087 5805688 105.2661  10.4170  1.98512125 56836

Отслеживайте COSMOS 1285 DEB в реальном времени с AllMySat

Download on the App Store